EXS30SC LEMG-EGSS

Flight info

Callsign EXS30SC
Flight time 2h 28m
Altitude 34000
Route BLN DCT MORAL DCT BEXID DCT VTB DCT RBO N867 BLV DCT BISKA P87 BELEN DCT DIDIG DCT MOKOR UN873 OLEBA DCT ROGPU DCT DIKRO UM185 TELTU
Aircraft B738/M-SDE2E3FGHIRWXY/LB1

Departure

Time 2026-05-04 22:00
Airport Málaga-Costa del Sol Airport (LEMG)

Arrival

Time 2026-05-05 00:29
Airport London Stansted Airport (EGSS)
Time Latitude Longitude Altitude Speed Heading
2026-05-04 21:24 36.67293 -4.48980 40 ft 0 kts 331°
2026-05-04 21:46 36.67289 -4.48977 40 ft 3 kts 330°
2026-05-04 21:46 36.67267 -4.48960 37 ft 4 kts 322°
2026-05-04 21:47 36.67247 -4.48937 38 ft 4 kts 301°
2026-05-04 21:47 36.67241 -4.48913 41 ft 4 kts 236°
2026-05-04 21:47 36.67244 -4.48908 41 ft 2 kts 222°
2026-05-04 21:51 36.67238 -4.48914 41 ft 4 kts 222°
2026-05-04 21:51 36.67208 -4.48948 41 ft 7 kts 222°
2026-05-04 21:51 36.67170 -4.49002 41 ft 9 kts 246°
2026-05-04 21:51 36.67130 -4.49075 41 ft 11 kts 242°
2026-05-04 21:52 36.67165 -4.49158 41 ft 12 kts 311°
2026-05-04 21:52 36.67224 -4.49240 41 ft 13 kts 311°
2026-05-04 21:52 36.67283 -4.49324 41 ft 13 kts 313°
2026-05-04 21:52 36.67342 -4.49405 42 ft 12 kts 311°
2026-05-04 21:53 36.67398 -4.49485 42 ft 12 kts 311°
2026-05-04 21:53 36.67460 -4.49572 41 ft 14 kts 311°
2026-05-04 21:53 36.67527 -4.49665 42 ft 14 kts 312°
2026-05-04 21:53 36.67591 -4.49754 42 ft 14 kts 311°
2026-05-04 21:54 36.67661 -4.49854 42 ft 15 kts 311°
2026-05-04 21:54 36.67729 -4.49886 42 ft 11 kts 34°
2026-05-04 21:54 36.67799 -4.49851 39 ft 11 kts 34°
2026-05-04 21:54 36.67867 -4.49777 41 ft 16 kts 42°
2026-05-04 21:55 36.67961 -4.49673 41 ft 20 kts 41°
2026-05-04 21:55 36.68068 -4.49554 41 ft 20 kts 42°
2026-05-04 21:55 36.68173 -4.49438 41 ft 20 kts 41°
2026-05-04 21:55 36.68269 -4.49332 39 ft 14 kts 46°
2026-05-04 21:56 36.68264 -4.49220 38 ft 14 kts 116°
2026-05-04 21:56 36.68213 -4.49100 39 ft 17 kts 117°
2026-05-04 21:56 36.68160 -4.48973 38 ft 16 kts 117°
2026-05-04 21:56 36.68107 -4.48848 36 ft 16 kts 117°
2026-05-04 21:57 36.68059 -4.48731 39 ft 15 kts 117°
2026-05-04 21:57 36.68010 -4.48617 39 ft 15 kts 118°
2026-05-04 21:57 36.67964 -4.48508 39 ft 14 kts 117°
2026-05-04 21:57 36.67920 -4.48404 37 ft 13 kts 117°
2026-05-04 21:58 36.67878 -4.48304 38 ft 13 kts 117°
2026-05-04 21:58 36.67837 -4.48207 37 ft 13 kts 117°
2026-05-04 21:58 36.67808 -4.48114 33 ft 11 kts 85°
2026-05-04 21:58 36.67865 -4.48059 35 ft 11 kts 27°
2026-05-04 21:59 36.67931 -4.48027 36 ft 10 kts 353°
2026-05-04 21:59 36.67974 -4.48094 35 ft 12 kts 298°
2026-05-04 21:59 36.68078 -4.48340 37 ft 64 kts 297°
2026-05-04 21:59 36.68389 -4.49082 45 ft 127 kts 297°
2026-05-04 22:00 36.68875 -4.50239 167 ft 166 kts 298°
2026-05-04 22:00 36.69454 -4.51491 912 ft 168 kts 304°
2026-05-04 22:00 36.70218 -4.52556 1773 ft 160 kts 315°
2026-05-04 22:00 36.70997 -4.53560 2483 ft 163 kts 316°
2026-05-04 22:01 36.71818 -4.54580 3085 ft 174 kts 315°
2026-05-04 22:01 36.72693 -4.55715 3597 ft 188 kts 314°
2026-05-04 22:01 36.73604 -4.56923 4153 ft 195 kts 313°
2026-05-04 22:01 36.74555 -4.58161 4651 ft 198 kts 314°
2026-05-04 22:02 36.75613 -4.59283 5077 ft 204 kts 333°
2026-05-04 22:02 36.76982 -4.59858 5507 ft 212 kts 344°
2026-05-04 22:02 36.78429 -4.60363 5956 ft 220 kts 342°
2026-05-04 22:02 36.79934 -4.60907 6424 ft 231 kts 342°
2026-05-04 22:03 36.81544 -4.61060 7018 ft 237 kts 14°
2026-05-04 22:03 36.82978 -4.60036 7664 ft 244 kts 38°
2026-05-04 22:03 36.84314 -4.58578 7954 ft 266 kts 39°
2026-05-04 22:03 36.85716 -4.57004 8489 ft 276 kts 39°
2026-05-04 22:04 36.87167 -4.55375 9063 ft 284 kts 38°
2026-05-04 22:04 36.88629 -4.53741 9735 ft 287 kts 38°
2026-05-04 22:04 36.90154 -4.52045 10357 ft 293 kts 38°
2026-05-04 22:04 36.91684 -4.50349 11035 ft 295 kts 38°
2026-05-04 22:05 36.93221 -4.48650 11743 ft 297 kts 38°
2026-05-04 22:05 36.94759 -4.46952 12383 ft 301 kts 37°
2026-05-04 22:05 36.96343 -4.45205 13056 ft 306 kts 37°
2026-05-04 22:05 36.97951 -4.43435 13758 ft 308 kts 36°
2026-05-04 22:06 36.99686 -4.41793 14156 ft 322 kts 29°
2026-05-04 22:06 37.01634 -4.40236 14303 ft 343 kts 27°
2026-05-04 22:06 37.03736 -4.38631 14470 ft 365 kts 27°
2026-05-04 22:06 37.05951 -4.36942 14800 ft 379 kts 27°
2026-05-04 22:07 37.08220 -4.35189 15395 ft 385 kts 28°
2026-05-04 22:07 37.10498 -4.33406 16077 ft 388 kts 28°
2026-05-04 22:07 37.12792 -4.31595 16771 ft 391 kts 28°
2026-05-04 22:07 37.15104 -4.29761 17432 ft 395 kts 28°
2026-05-04 22:08 37.17441 -4.27900 18097 ft 400 kts 28°
2026-05-04 22:08 37.19799 -4.26019 18680 ft 404 kts 28°
2026-05-04 22:08 37.22178 -4.24119 19264 ft 407 kts 28°
2026-05-04 22:08 37.24572 -4.22206 19840 ft 410 kts 28°
2026-05-04 22:09 37.26986 -4.20274 20395 ft 413 kts 28°
2026-05-04 22:09 37.29416 -4.18328 20938 ft 416 kts 28°
2026-05-04 22:09 37.31872 -4.16362 21474 ft 420 kts 28°
2026-05-04 22:09 37.34345 -4.14380 22009 ft 424 kts 28°
2026-05-04 22:10 37.36839 -4.12378 22547 ft 427 kts 27°
2026-05-04 22:10 37.38504 -4.11042 22900 ft 429 kts 27°
2026-05-04 22:10 37.41026 -4.09016 23435 ft 433 kts 27°
2026-05-04 22:10 37.43579 -4.06964 23867 ft 437 kts 27°
2026-05-04 22:11 37.46150 -4.04895 24274 ft 440 kts 27°
2026-05-04 22:11 37.48737 -4.02811 24712 ft 443 kts 27°
2026-05-04 22:11 37.51341 -4.00712 25134 ft 446 kts 27°
2026-05-04 22:11 37.53962 -3.98597 25530 ft 449 kts 27°
2026-05-04 22:12 37.56602 -3.96466 25907 ft 452 kts 27°
2026-05-04 22:12 37.59260 -3.94318 26305 ft 455 kts 27°
2026-05-04 22:12 37.62839 -3.91422 26836 ft 458 kts 27°
2026-05-04 22:12 37.64619 -3.89981 27075 ft 461 kts 27°
2026-05-04 22:13 37.67328 -3.87786 27457 ft 464 kts 27°
2026-05-04 22:13 37.70053 -3.85575 27795 ft 468 kts 26°
2026-05-04 22:13 37.72799 -3.83346 28158 ft 471 kts 26°
2026-05-04 22:13 37.75557 -3.81103 28569 ft 472 kts 27°
2026-05-04 22:14 37.78331 -3.78848 28872 ft 476 kts 26°
2026-05-04 22:14 37.81124 -3.76575 29176 ft 479 kts 26°
2026-05-04 22:14 37.83972 -3.74386 29510 ft 476 kts 19°
2026-05-04 22:14 37.87044 -3.73023 29929 ft 464 kts
2026-05-04 22:15 37.90144 -3.71920 30470 ft 461 kts
2026-05-04 22:15 37.93222 -3.70831 30913 ft 459 kts
2026-05-04 22:15 37.96289 -3.69721 31283 ft 459 kts
2026-05-04 22:15 37.99353 -3.68583 31624 ft 459 kts
2026-05-04 22:16 38.02419 -3.67424 31964 ft 460 kts
2026-05-04 22:16 38.05480 -3.66254 32352 ft 459 kts
2026-05-04 22:16 38.08531 -3.65086 32735 ft 458 kts
2026-05-04 22:16 38.11581 -3.63921 33084 ft 458 kts
2026-05-04 22:17 38.14633 -3.62759 33465 ft 457 kts
2026-05-04 22:17 38.17700 -3.61986 33809 ft 444 kts 357°
2026-05-04 22:17 38.20766 -3.61649 34031 ft 443 kts 354°
2026-05-04 22:18 38.26945 -3.61221 34011 ft 445 kts 354°
2026-05-04 22:18 38.33073 -3.60742 34018 ft 438 kts 354°
2026-05-04 22:19 38.39159 -3.60185 34031 ft 439 kts 355°
2026-05-04 22:19 38.45254 -3.59594 34025 ft 440 kts 355°
2026-05-04 22:20 38.51313 -3.58998 34026 ft 440 kts 355°
2026-05-04 22:20 38.57417 -3.58399 34029 ft 440 kts 355°
2026-05-04 22:21 38.63528 -3.57799 34039 ft 441 kts 354°
2026-05-04 22:21 38.69651 -3.57198 34028 ft 441 kts 354°
2026-05-04 22:22 38.75757 -3.56596 34028 ft 440 kts 354°
2026-05-04 22:22 38.81854 -3.55994 34022 ft 439 kts 354°
2026-05-04 22:23 38.87941 -3.55394 34031 ft 439 kts 354°
2026-05-04 22:23 38.94030 -3.54792 34026 ft 439 kts 354°
2026-05-04 22:24 39.00116 -3.54189 34022 ft 438 kts 354°
2026-05-04 22:24 39.06188 -3.53589 34025 ft 437 kts 354°
2026-05-04 22:25 39.12261 -3.52991 34026 ft 438 kts 354°
2026-05-04 22:25 39.18339 -3.52390 34024 ft 439 kts 354°
2026-05-04 22:26 39.24430 -3.51787 34025 ft 439 kts 354°
2026-05-04 22:26 39.30522 -3.51182 34072 ft 440 kts 354°
2026-05-04 22:27 39.36642 -3.50575 34022 ft 442 kts 354°
2026-05-04 22:27 39.42739 -3.49967 34017 ft 443 kts 354°
2026-05-04 22:28 39.48887 -3.49352 34018 ft 444 kts 354°
2026-05-04 22:28 39.55043 -3.48737 34048 ft 445 kts 354°
2026-05-04 22:29 39.61233 -3.48115 34037 ft 446 kts 354°
2026-05-04 22:29 39.67429 -3.47486 34006 ft 447 kts 354°
2026-05-04 22:30 39.73630 -3.46855 34011 ft 447 kts 354°
2026-05-04 22:30 39.79839 -3.46150 34008 ft 451 kts 357°
2026-05-04 22:31 39.86075 -3.44950 34014 ft 454 kts 359°
2026-05-04 22:31 39.92309 -3.43619 34005 ft 454 kts 359°
2026-05-04 22:32 39.98541 -3.42325 34051 ft 453 kts 359°
2026-05-04 22:32 40.04773 -3.41067 34010 ft 453 kts 359°
2026-05-04 22:33 40.11007 -3.39818 34007 ft 453 kts 359°
2026-05-04 22:33 40.17241 -3.38566 34006 ft 453 kts 359°
2026-05-04 22:34 40.23479 -3.37310 34016 ft 454 kts 359°
2026-05-04 22:34 40.29714 -3.36051 34020 ft 455 kts 359°
2026-05-04 22:35 40.35975 -3.34785 34018 ft 455 kts 359°
2026-05-04 22:35 40.42239 -3.33515 34028 ft 456 kts 359°
2026-05-04 22:36 40.48526 -3.32239 34030 ft 458 kts 360°
2026-05-04 22:36 40.54823 -3.30958 34018 ft 458 kts 360°
2026-05-04 22:37 40.61121 -3.29673 34020 ft 458 kts 360°
2026-05-04 22:37 40.67414 -3.28387 34016 ft 457 kts 360°
2026-05-04 22:38 40.73701 -3.27101 34018 ft 457 kts 360°
2026-05-04 22:38 40.79936 -3.25823 34019 ft 456 kts 360°
2026-05-04 22:39 40.86209 -3.24532 34040 ft 456 kts
2026-05-04 22:39 40.92489 -3.23142 34037 ft 458 kts
2026-05-04 22:40 40.98783 -3.21715 34020 ft 459 kts
2026-05-04 22:40 41.05085 -3.20302 34031 ft 459 kts
2026-05-04 22:41 41.11381 -3.18886 34042 ft 461 kts
2026-05-04 22:41 41.17712 -3.17451 34038 ft 462 kts
2026-05-04 22:42 41.24054 -3.16011 34034 ft 463 kts
2026-05-04 22:42 41.30404 -3.14566 34035 ft 463 kts
2026-05-04 22:43 41.36762 -3.13118 34058 ft 464 kts
2026-05-04 22:43 41.43131 -3.11664 34033 ft 464 kts
2026-05-04 22:44 41.49459 -3.10216 34038 ft 464 kts
2026-05-04 22:44 41.55821 -3.08771 34056 ft 464 kts
2026-05-04 22:45 41.62190 -3.07332 34051 ft 464 kts
2026-05-04 22:45 41.71735 -3.05166 34016 ft 463 kts
2026-05-04 22:46 41.78084 -3.03714 34047 ft 463 kts
2026-05-04 22:46 41.84434 -3.02253 34047 ft 463 kts
2026-05-04 22:47 41.90792 -3.00787 34048 ft 464 kts
2026-05-04 22:47 41.97153 -2.99318 34063 ft 464 kts
2026-05-04 22:48 42.03517 -2.97845 34050 ft 465 kts
2026-05-04 22:48 42.09894 -2.96366 34048 ft 465 kts
2026-05-04 22:49 42.16269 -2.94885 34064 ft 465 kts
2026-05-04 22:49 42.22640 -2.93401 34049 ft 464 kts
2026-05-04 22:50 42.28994 -2.91919 34055 ft 462 kts
2026-05-04 22:50 42.35310 -2.90441 34055 ft 460 kts
2026-05-04 22:51 42.41612 -2.88966 34052 ft 459 kts
2026-05-04 22:51 42.47916 -2.88064 34041 ft 451 kts 353°
2026-05-04 22:52 42.54177 -2.88416 34045 ft 450 kts 352°
2026-05-04 22:52 42.60445 -2.88835 34058 ft 451 kts 352°
2026-05-04 22:53 42.66727 -2.89197 34046 ft 452 kts 353°
2026-05-04 22:53 42.73027 -2.89526 34049 ft 454 kts 353°
2026-05-04 22:54 42.79341 -2.89848 34052 ft 455 kts 353°
2026-05-04 22:54 42.85681 -2.90172 34023 ft 456 kts 353°
2026-05-04 22:55 42.91960 -2.90497 34047 ft 455 kts 353°
2026-05-04 22:55 42.98286 -2.90825 34063 ft 455 kts 353°
2026-05-04 22:56 43.04622 -2.91155 34064 ft 456 kts 354°
2026-05-04 22:56 43.10968 -2.91485 34050 ft 456 kts 354°
2026-05-04 22:57 43.17301 -2.91815 34047 ft 456 kts 354°
2026-05-04 22:57 43.23642 -2.92146 34043 ft 456 kts 354°
2026-05-04 22:58 43.29936 -2.92400 34043 ft 457 kts 359°
2026-05-04 22:58 43.35215 -2.91303 34057 ft 460 kts
2026-05-04 22:59 43.41455 -2.89364 34063 ft 460 kts 10°
2026-05-04 22:59 43.47654 -2.87470 34043 ft 460 kts
2026-05-04 23:00 43.53462 -2.85757 34042 ft 459 kts
2026-05-04 23:00 43.58867 -2.84175 34037 ft 459 kts
2026-05-04 23:01 43.64321 -2.82574 34035 ft 460 kts
2026-05-04 23:01 43.69718 -2.80971 34024 ft 460 kts 11°
2026-05-04 23:02 43.75146 -2.79216 34026 ft 461 kts 11°
2026-05-04 23:02 43.81039 -2.77284 34026 ft 461 kts 11°
2026-05-04 23:03 43.87063 -2.75317 34021 ft 461 kts 11°
2026-05-04 23:03 43.92948 -2.73470 34018 ft 461 kts
2026-05-04 23:04 43.98624 -2.72149 34023 ft 460 kts
2026-05-04 23:04 44.04679 -2.70894 34023 ft 460 kts
2026-05-04 23:05 44.10891 -2.69579 34019 ft 461 kts
2026-05-04 23:05 44.17060 -2.68229 34020 ft 460 kts
2026-05-04 23:06 44.23230 -2.66857 33999 ft 461 kts
2026-05-04 23:06 44.29519 -2.65452 34013 ft 461 kts
2026-05-04 23:07 44.35528 -2.64108 34019 ft 461 kts
2026-05-04 23:07 44.41870 -2.62688 34024 ft 462 kts
2026-05-04 23:08 44.48220 -2.61263 34015 ft 463 kts
2026-05-04 23:08 44.54571 -2.59835 34016 ft 463 kts
2026-05-04 23:09 44.60935 -2.58401 34012 ft 464 kts
2026-05-04 23:09 44.67310 -2.56961 34006 ft 464 kts
2026-05-04 23:10 44.73662 -2.55523 34005 ft 463 kts
2026-05-04 23:10 44.80001 -2.54084 34005 ft 463 kts
2026-05-04 23:11 44.86357 -2.52639 34005 ft 462 kts
2026-05-04 23:11 44.92705 -2.51192 34005 ft 462 kts
2026-05-04 23:12 44.99049 -2.49743 34008 ft 461 kts
2026-05-04 23:12 45.05381 -2.48293 34001 ft 461 kts
2026-05-04 23:13 45.11706 -2.46842 34005 ft 460 kts
2026-05-04 23:13 45.18001 -2.45394 34005 ft 460 kts
2026-05-04 23:14 45.24308 -2.43941 33998 ft 459 kts
2026-05-04 23:14 45.30614 -2.42484 33999 ft 459 kts
2026-05-04 23:15 45.36908 -2.41027 34005 ft 458 kts
2026-05-04 23:15 45.43206 -2.39566 34000 ft 458 kts
2026-05-04 23:16 45.49441 -2.38116 33993 ft 457 kts
2026-05-04 23:16 45.55716 -2.36653 33994 ft 456 kts
2026-05-04 23:17 45.61977 -2.35190 33998 ft 456 kts
2026-05-04 23:17 45.68222 -2.33728 33976 ft 455 kts
2026-05-04 23:18 45.74457 -2.32265 33987 ft 455 kts
2026-05-04 23:18 45.80712 -2.30794 33994 ft 455 kts
2026-05-04 23:19 45.86961 -2.29320 33991 ft 455 kts
2026-05-04 23:19 45.93212 -2.27843 33988 ft 456 kts
2026-05-04 23:20 45.99473 -2.26360 33993 ft 456 kts
2026-05-04 23:20 46.05726 -2.24875 33984 ft 455 kts
2026-05-04 23:21 46.11961 -2.23367 33984 ft 455 kts
2026-05-04 23:21 46.18202 -2.21842 33978 ft 454 kts 10°
2026-05-04 23:22 46.24385 -2.20329 33976 ft 453 kts 10°
2026-05-04 23:22 46.30601 -2.18806 33975 ft 453 kts 10°
2026-05-04 23:23 46.36810 -2.17283 33975 ft 452 kts 10°
2026-05-04 23:23 46.43003 -2.15760 33968 ft 451 kts 10°
2026-05-04 23:24 46.49187 -2.14236 33971 ft 451 kts 10°
2026-05-04 23:24 46.55369 -2.12709 33967 ft 450 kts 11°
2026-05-04 23:25 46.61538 -2.11181 33967 ft 449 kts 11°
2026-05-04 23:25 46.67698 -2.09652 33962 ft 449 kts 11°
2026-05-04 23:26 46.73861 -2.08119 33959 ft 449 kts 11°
2026-05-04 23:26 46.80020 -2.06583 33964 ft 449 kts 11°
2026-05-04 23:27 46.86178 -2.05044 33955 ft 449 kts 11°
2026-05-04 23:27 46.92301 -2.03510 33939 ft 449 kts 11°
2026-05-04 23:28 46.98439 -2.01804 33942 ft 449 kts 19°
2026-05-04 23:28 47.03994 -1.97957 33948 ft 444 kts 38°
2026-05-04 23:29 47.08836 -1.92470 33956 ft 444 kts 40°
2026-05-04 23:29 47.13827 -1.87005 33950 ft 447 kts 33°
2026-05-04 23:30 47.19552 -1.83516 33956 ft 453 kts 14°
2026-05-04 23:30 47.25746 -1.81746 33960 ft 454 kts 12°
2026-05-04 23:31 47.31965 -1.80075 33960 ft 454 kts 12°
2026-05-04 23:31 47.38174 -1.78344 33956 ft 454 kts 12°
2026-05-04 23:32 47.44376 -1.76567 33955 ft 453 kts 12°
2026-05-04 23:32 47.50557 -1.74778 33953 ft 453 kts 13°
2026-05-04 23:33 47.56779 -1.72972 33952 ft 452 kts 13°
2026-05-04 23:33 47.62944 -1.71180 33951 ft 451 kts 13°
2026-05-04 23:34 47.69102 -1.69386 33958 ft 451 kts 13°
2026-05-04 23:34 47.75225 -1.67599 33936 ft 451 kts 13°
2026-05-04 23:35 47.81344 -1.65808 33956 ft 452 kts 13°
2026-05-04 23:35 47.87532 -1.63993 33968 ft 454 kts 13°
2026-05-04 23:36 47.93749 -1.62165 33973 ft 457 kts 13°
2026-05-04 23:36 47.99995 -1.60323 33972 ft 459 kts 13°
2026-05-04 23:37 48.06269 -1.58469 33969 ft 460 kts 13°
2026-05-04 23:37 48.12564 -1.56605 33966 ft 461 kts 13°
2026-05-04 23:38 48.18806 -1.54751 33967 ft 461 kts 13°
2026-05-04 23:38 48.25102 -1.52877 33958 ft 461 kts 13°
2026-05-04 23:39 48.31377 -1.51005 33966 ft 459 kts 13°
2026-05-04 23:39 48.37641 -1.49130 33965 ft 458 kts 13°
2026-05-04 23:40 48.43862 -1.47264 33959 ft 457 kts 13°
2026-05-04 23:40 48.50088 -1.45392 33970 ft 456 kts 13°
2026-05-04 23:41 48.56303 -1.43518 33974 ft 455 kts 13°
2026-05-04 23:41 48.62516 -1.41640 33974 ft 455 kts 13°
2026-05-04 23:42 48.68732 -1.39755 33972 ft 456 kts 13°
2026-05-04 23:42 48.74945 -1.37814 33981 ft 456 kts 13°
2026-05-04 23:43 48.81166 -1.35847 33979 ft 457 kts 13°
2026-05-04 23:43 48.87406 -1.33874 33980 ft 458 kts 13°
2026-05-04 23:44 48.93657 -1.31897 33982 ft 459 kts 13°
2026-05-04 23:44 48.98864 -1.30248 33968 ft 460 kts 13°
2026-05-04 23:45 49.05122 -1.28261 33985 ft 462 kts 13°
2026-05-04 23:45 49.11423 -1.26255 33983 ft 464 kts 13°
2026-05-04 23:46 49.17730 -1.24242 33982 ft 465 kts 13°
2026-05-04 23:46 49.23941 -1.22254 33978 ft 466 kts 13°
2026-05-04 23:47 49.31252 -1.19908 33983 ft 467 kts 13°
2026-05-04 23:47 49.36569 -1.18197 33983 ft 466 kts 13°
2026-05-04 23:48 49.42913 -1.16151 33982 ft 465 kts 13°
2026-05-04 23:48 49.49232 -1.14107 33986 ft 463 kts 13°
2026-05-04 23:49 49.53744 -1.12645 33992 ft 461 kts 12°
2026-05-04 23:49 49.59168 -1.09828 33993 ft 456 kts 29°
2026-05-04 23:50 49.64103 -1.04684 34001 ft 449 kts 41°
2026-05-04 23:50 49.68894 -0.98803 33829 ft 441 kts 40°
2026-05-04 23:51 49.71211 -0.96029 33542 ft 434 kts 40°
2026-05-04 23:51 49.73318 -0.93651 33240 ft 432 kts 34°
2026-05-04 23:51 49.75638 -0.91799 32933 ft 430 kts 23°
2026-05-04 23:51 49.78275 -0.90432 32616 ft 427 kts 14°
2026-05-04 23:52 49.81030 -0.89740 32247 ft 425 kts
2026-05-04 23:52 49.83775 -0.89381 31941 ft 421 kts
2026-05-04 23:52 49.86619 -0.89042 31582 ft 419 kts
2026-05-04 23:52 49.89419 -0.88692 31244 ft 417 kts
2026-05-04 23:53 49.92290 -0.88308 30891 ft 414 kts
2026-05-04 23:53 49.95116 -0.87909 30548 ft 412 kts
2026-05-04 23:53 49.97914 -0.87504 30217 ft 410 kts
2026-05-04 23:53 50.00724 -0.87096 29844 ft 408 kts
2026-05-04 23:54 50.03538 -0.86694 29444 ft 405 kts
2026-05-04 23:54 50.06322 -0.86292 29091 ft 401 kts
2026-05-04 23:54 50.09034 -0.85904 28728 ft 398 kts
2026-05-04 23:54 50.11749 -0.85520 28392 ft 394 kts
2026-05-04 23:55 50.14464 -0.85137 28026 ft 391 kts
2026-05-04 23:55 50.17162 -0.84756 27680 ft 388 kts
2026-05-04 23:55 50.22504 -0.84010 26994 ft 382 kts
2026-05-04 23:56 50.25144 -0.83637 26643 ft 379 kts
2026-05-04 23:56 50.27760 -0.83263 26298 ft 377 kts
2026-05-04 23:56 50.30363 -0.82891 25957 ft 374 kts
2026-05-04 23:56 50.32943 -0.82521 25623 ft 371 kts
2026-05-04 23:57 50.35505 -0.82149 25286 ft 369 kts
2026-05-04 23:57 50.38054 -0.81776 24946 ft 367 kts
2026-05-04 23:57 50.40555 -0.81409 24621 ft 364 kts
2026-05-04 23:57 50.43073 -0.81039 24282 ft 363 kts
2026-05-04 23:58 50.45611 -0.80667 23939 ft 361 kts
2026-05-04 23:58 50.48070 -0.80306 23626 ft 359 kts
2026-05-04 23:58 50.50549 -0.79942 23231 ft 357 kts
2026-05-04 23:58 50.53015 -0.79579 22868 ft 355 kts
2026-05-04 23:59 50.55492 -0.79215 22523 ft 352 kts
2026-05-04 23:59 50.57893 -0.78861 22174 ft 349 kts
2026-05-04 23:59 50.60303 -0.78506 21865 ft 346 kts
2026-05-04 23:59 50.62694 -0.78154 21534 ft 344 kts
2026-05-05 00:00 50.65069 -0.77812 21203 ft 342 kts
2026-05-05 00:00 50.65871 -0.77696 21090 ft 341 kts
2026-05-05 00:00 50.69772 -0.77136 20568 ft 337 kts
2026-05-05 00:00 50.72101 -0.76801 20248 ft 335 kts
2026-05-05 00:01 50.74414 -0.76468 19936 ft 333 kts
2026-05-05 00:01 50.76712 -0.76135 19620 ft 331 kts
2026-05-05 00:01 50.79003 -0.75804 19306 ft 329 kts
2026-05-05 00:01 50.81266 -0.75394 19058 ft 325 kts 14°
2026-05-05 00:02 50.83403 -0.74255 19041 ft 326 kts 23°
2026-05-05 00:02 50.85495 -0.72887 19020 ft 324 kts 25°
2026-05-05 00:02 50.87565 -0.71498 19013 ft 323 kts 25°
2026-05-05 00:02 50.89603 -0.70134 19017 ft 324 kts 24°
2026-05-05 00:03 50.91692 -0.68748 19030 ft 326 kts 24°
2026-05-05 00:03 50.93792 -0.67367 19029 ft 327 kts 24°
2026-05-05 00:03 50.95899 -0.65989 19027 ft 328 kts 24°
2026-05-05 00:03 50.98012 -0.64613 19027 ft 329 kts 24°
2026-05-05 00:04 51.00105 -0.63253 19024 ft 329 kts 24°
2026-05-05 00:04 51.02207 -0.61889 19023 ft 328 kts 24°
2026-05-05 00:04 51.04317 -0.60519 19020 ft 327 kts 24°
2026-05-05 00:04 51.06423 -0.59150 19022 ft 327 kts 24°
2026-05-05 00:05 51.08525 -0.57784 19021 ft 326 kts 24°
2026-05-05 00:05 51.10617 -0.56423 19022 ft 325 kts 24°
2026-05-05 00:05 51.12704 -0.55064 19023 ft 324 kts 24°
2026-05-05 00:05 51.14758 -0.53725 19026 ft 324 kts 24°
2026-05-05 00:06 51.16842 -0.52366 19027 ft 323 kts 24°
2026-05-05 00:06 51.18923 -0.51006 19024 ft 323 kts 24°
2026-05-05 00:06 51.20977 -0.49663 19024 ft 323 kts 24°
2026-05-05 00:06 51.23046 -0.48310 19027 ft 323 kts 24°
2026-05-05 00:07 51.25099 -0.46964 19026 ft 324 kts 24°
2026-05-05 00:07 51.27184 -0.45598 19025 ft 324 kts 24°
2026-05-05 00:07 51.29269 -0.44229 19027 ft 324 kts 24°
2026-05-05 00:07 51.31357 -0.42857 19027 ft 324 kts 24°
2026-05-05 00:08 51.33443 -0.41486 19026 ft 325 kts 24°
2026-05-05 00:08 51.35533 -0.40109 19016 ft 325 kts 23°
2026-05-05 00:08 51.37611 -0.38741 19020 ft 326 kts 24°
2026-05-05 00:08 51.39711 -0.37356 19024 ft 326 kts 24°
2026-05-05 00:09 51.41811 -0.35970 19025 ft 327 kts 23°
2026-05-05 00:09 51.43910 -0.34572 19023 ft 327 kts 25°
2026-05-05 00:09 51.45978 -0.33054 19019 ft 326 kts 26°
2026-05-05 00:09 51.47929 -0.31553 18877 ft 322 kts 27°
2026-05-05 00:10 51.49935 -0.29993 18602 ft 320 kts 27°
2026-05-05 00:10 51.51942 -0.28436 18247 ft 320 kts 27°
2026-05-05 00:10 51.53932 -0.26897 17890 ft 319 kts 27°
2026-05-05 00:10 51.55926 -0.25360 17554 ft 317 kts 27°
2026-05-05 00:11 51.57911 -0.23832 17219 ft 315 kts 26°
2026-05-05 00:11 51.59890 -0.22310 16864 ft 316 kts 26°
2026-05-05 00:11 51.61868 -0.20787 16543 ft 315 kts 26°
2026-05-05 00:11 51.63837 -0.19272 16239 ft 312 kts 26°
2026-05-05 00:12 51.65792 -0.17766 15929 ft 311 kts 26°
2026-05-05 00:12 51.67739 -0.16265 15619 ft 309 kts 26°
2026-05-05 00:12 51.69675 -0.14772 15313 ft 308 kts 26°
2026-05-05 00:12 51.71603 -0.13283 15004 ft 307 kts 26°
2026-05-05 00:13 51.73510 -0.11809 14711 ft 305 kts 26°
2026-05-05 00:13 51.75425 -0.10333 14412 ft 304 kts 25°
2026-05-05 00:13 51.77355 -0.08947 14116 ft 303 kts 24°
2026-05-05 00:13 51.79291 -0.07606 13824 ft 302 kts 24°
2026-05-05 00:14 51.81200 -0.06287 13499 ft 300 kts 23°
2026-05-05 00:14 51.83118 -0.04956 13173 ft 299 kts 22°
2026-05-05 00:14 51.85027 -0.03626 12859 ft 298 kts 22°
2026-05-05 00:14 51.86925 -0.02299 12545 ft 297 kts 22°
2026-05-05 00:15 51.88758 -0.01013 12248 ft 296 kts 22°
2026-05-05 00:15 51.90639 0.00310 11951 ft 294 kts 22°
2026-05-05 00:15 51.92478 0.01603 11645 ft 294 kts 22°
2026-05-05 00:15 51.94348 0.02921 11346 ft 292 kts 22°
2026-05-05 00:16 51.96121 0.04171 11077 ft 291 kts 22°
2026-05-05 00:16 51.97951 0.05451 10782 ft 290 kts 21°
2026-05-05 00:16 51.99727 0.06635 10507 ft 289 kts 21°
2026-05-05 00:16 52.01587 0.07860 10234 ft 288 kts 21°
2026-05-05 00:17 52.03425 0.09067 9941 ft 287 kts 21°
2026-05-05 00:17 52.05248 0.10263 9636 ft 286 kts 20°
2026-05-05 00:17 52.07093 0.11484 9301 ft 286 kts 21°
2026-05-05 00:17 52.08877 0.12882 9006 ft 286 kts 35°
2026-05-05 00:18 52.10094 0.15034 8735 ft 286 kts 60°
2026-05-05 00:18 52.10673 0.18084 8463 ft 284 kts 87°
2026-05-05 00:18 52.10355 0.21216 8160 ft 283 kts 114°
2026-05-05 00:18 52.09213 0.23764 7851 ft 280 kts 142°
2026-05-05 00:19 52.07540 0.25157 7547 ft 276 kts 169°
2026-05-05 00:19 52.05665 0.25140 7317 ft 269 kts 197°
2026-05-05 00:19 52.04070 0.23804 7243 ft 256 kts 218°
2026-05-05 00:19 52.02670 0.22047 7013 ft 254 kts 220°
2026-05-05 00:20 52.01313 0.20281 6790 ft 244 kts 221°
2026-05-05 00:20 52.00028 0.18607 6537 ft 232 kts 221°
2026-05-05 00:20 51.98793 0.17003 6260 ft 224 kts 221°
2026-05-05 00:20 51.97589 0.15444 6060 ft 217 kts 221°
2026-05-05 00:21 51.96444 0.13964 6002 ft 207 kts 221°
2026-05-05 00:21 51.95324 0.12517 6003 ft 206 kts 221°
2026-05-05 00:21 51.94200 0.11066 6004 ft 207 kts 221°
2026-05-05 00:21 51.93074 0.09611 6003 ft 207 kts 221°
2026-05-05 00:22 51.92004 0.08230 6000 ft 207 kts 221°
2026-05-05 00:22 51.90864 0.06760 5998 ft 207 kts 221°
2026-05-05 00:22 51.89742 0.05312 5809 ft 213 kts 221°
2026-05-05 00:22 51.88574 0.03800 5573 ft 211 kts 221°
2026-05-05 00:23 51.87461 0.02360 5362 ft 207 kts 221°
2026-05-05 00:23 51.86352 0.00921 5159 ft 202 kts 221°
2026-05-05 00:23 51.85273 -0.00480 4949 ft 195 kts 220°
2026-05-05 00:23 51.84055 -0.01435 4691 ft 195 kts 187°
2026-05-05 00:24 51.82765 -0.00984 4457 ft 191 kts 146°
2026-05-05 00:24 51.81830 0.00433 4244 ft 187 kts 132°
2026-05-05 00:24 51.80961 0.02010 3936 ft 188 kts 131°
2026-05-05 00:24 51.80091 0.03608 3623 ft 191 kts 131°
2026-05-05 00:25 51.79214 0.05213 3243 ft 196 kts 130°
2026-05-05 00:25 51.78525 0.07072 2823 ft 198 kts 96°
2026-05-05 00:25 51.78800 0.08986 2754 ft 176 kts 48°
2026-05-05 00:25 51.79698 0.10201 2569 ft 167 kts 39°
2026-05-05 00:26 51.80531 0.11460 2364 ft 163 kts 42°
2026-05-05 00:26 51.81351 0.12713 2123 ft 160 kts 42°
2026-05-05 00:26 51.82153 0.13925 1911 ft 156 kts 42°
2026-05-05 00:26 51.82930 0.15096 1715 ft 150 kts 42°
2026-05-05 00:27 51.83683 0.16231 1498 ft 146 kts 43°
2026-05-05 00:27 51.84426 0.17350 1287 ft 147 kts 44°
2026-05-05 00:27 51.85185 0.18496 1127 ft 152 kts 43°
2026-05-05 00:27 51.85962 0.19659 895 ft 154 kts 43°
2026-05-05 00:28 51.86728 0.20806 648 ft 146 kts 43°
2026-05-05 00:28 51.87426 0.21861 452 ft 139 kts 43°
2026-05-05 00:28 51.88094 0.22874 347 ft 127 kts 40°
2026-05-05 00:28 51.88633 0.23679 346 ft 84 kts 43°
2026-05-05 00:29 51.88948 0.24151 348 ft 40 kts 43°
2026-05-05 00:29 51.89046 0.24347 353 ft 15 kts 59°
2026-05-05 00:29 51.89091 0.24503 354 ft 16 kts 68°
2026-05-05 00:29 51.89131 0.24663 352 ft 15 kts 66°
2026-05-05 00:30 51.89171 0.24815 350 ft 14 kts 72°
2026-05-05 00:30 51.89154 0.24930 349 ft 10 kts 77°
2026-05-05 00:30 51.89154 0.24937 350 ft 0 kts 78°
2026-05-05 00:30 51.89145 0.24940 355 ft 4 kts 183°
2026-05-05 00:31 51.89116 0.24889 352 ft 7 kts 224°
2026-05-05 00:31 51.89078 0.24834 352 ft 7 kts 216°
2026-05-05 00:31 51.89047 0.24822 349 ft 7 kts 173°
2026-05-05 00:31 51.88995 0.24889 348 ft 8 kts 133°
2026-05-05 00:32 51.88977 0.24947 349 ft 9 kts 102°
2026-05-05 00:32 51.88955 0.25045 353 ft 9 kts 129°
2026-05-05 00:32 51.88911 0.25123 350 ft 9 kts 133°
2026-05-05 00:32 51.88868 0.25196 348 ft 9 kts 133°
2026-05-05 00:33 51.88827 0.25268 348 ft 9 kts 133°
2026-05-05 00:33 51.88810 0.25343 354 ft 7 kts 55°
2026-05-05 00:33 51.88837 0.25387 348 ft 4 kts 42°
2026-05-05 00:33 51.88844 0.25396 355 ft 1 kts 41°
2026-05-05 00:34 51.88847 0.25400 348 ft 0 kts 41°